TimeMDT,TemperatureF,Dew PointF,Humidity,Sea Level PressureIn,VisibilityMPH,Wind Direction,Wind SpeedMPH,Gust SpeedMPH,PrecipitationIn,Events,Conditions,WindDirDegrees,DateUTC
12:52 AM,51.1,46.9,86,29.74,10.0,SSE,8.1,-,N/A,,Clear,160,2013-06-03 06:52:00
1:52 AM,48.9,46.9,93,29.71,10.0,SSE,8.1,-,N/A,,Clear,160,2013-06-03 07:52:00
2:52 AM,48.9,46.9,93,29.66,10.0,SSE,10.4,-,N/A,,Clear,150,2013-06-03 08:52:00
3:52 AM,51.1,48.0,89,29.61,10.0,SSE,12.7,-,N/A,,Clear,150,2013-06-03 09:52:00
4:52 AM,53.1,48.0,83,29.58,10.0,South,15.0,-,N/A,,Clear,170,2013-06-03 10:52:00
5:52 AM,52.0,46.9,83,29.57,10.0,SSE,12.7,-,N/A,,Clear,150,2013-06-03 11:52:00
6:52 AM,54.0,46.9,77,29.56,10.0,SSE,13.8,-,N/A,,Clear,150,2013-06-03 12:52:00
7:52 AM,57.0,48.9,74,29.62,10.0,SSW,8.1,-,N/A,,Clear,210,2013-06-03 13:52:00
8:52 AM,55.9,50.0,80,29.60,10.0,North,10.4,-,N/A,,Clear,350,2013-06-03 14:52:00
9:52 AM,57.9,51.1,78,29.63,10.0,NNW,4.6,-,N/A,,Clear,330,2013-06-03 15:52:00
10:52 AM,64.9,53.1,65,29.63,10.0,NNE,15.0,-,N/A,,Clear,20,2013-06-03 16:52:00
11:52 AM,69.1,52.0,54,29.62,10.0,North,29.9,35.7,N/A,,Clear,350,2013-06-03 17:52:00
12:52 PM,66.0,48.9,54,29.66,10.0,North,26.5,32.2,N/A,,Overcast,360,2013-06-03 18:52:00
1:52 PM,69.1,48.9,49,29.68,10.0,North,28.8,35.7,N/A,,Clear,360,2013-06-03 19:52:00
2:52 PM,70.0,48.9,47,29.70,10.0,North,19.6,29.9,N/A,,Partly Cloudy,350,2013-06-03 20:52:00
3:52 PM,71.1,48.9,45,29.70,10.0,North,20.7,26.5,N/A,,Partly Cloudy,10,2013-06-03 21:52:00
4:52 PM,71.1,48.0,44,29.71,10.0,NNE,20.7,28.8,N/A,,Clear,30,2013-06-03 22:52:00
5:52 PM,70.0,44.1,39,29.74,10.0,NNE,11.5,-,N/A,,Clear,20,2013-06-03 23:52:00
6:52 PM,64.9,42.1,43,29.77,10.0,North,11.5,-,N/A,,Clear,10,2013-06-04 00:52:00
7:52 PM,62.1,43.0,50,29.81,10.0,North,12.7,-,N/A,,Clear,360,2013-06-04 01:52:00
8:52 PM,55.0,44.1,67,29.86,10.0,North,11.5,-,N/A,,Partly Cloudy,350,2013-06-04 02:52:00
9:52 PM,55.0,44.1,67,29.90,10.0,NNW,11.5,-,N/A,,Clear,340,2013-06-04 03:52:00
10:52 PM,48.9,44.1,83,29.90,10.0,NNW,9.2,-,N/A,,Clear,340,2013-06-04 04:52:00
11:52 PM,50.0,44.1,80,29.90,10.0,North,11.5,-,N/A,,Scattered Clouds,360,2013-06-04 05:52:00